leichi00

Alter:
Land: Österreich
Schnopser seit: 09.03.2014
Fairness Rating: 100%
Gespielte Bummerl: 711
Davon gewonnen: 223
Siegesrate: 31%
ELO: 615

Turnierteilnahmen

Bisher noch kein Turnier gespielt


Die letzten 25 gespielten Bummerl

Zeit Gegner Ergebnis Ende Credits Elo
20:42:01 am 22.05.2018 Beste 7:1 normal - 615 (15)
14:58:23 am 26.12.2017 Markus 6:8 normal - 600 (-7)
14:48:51 am 26.12.2017 Günther Zeitlhofer 4:8 normal - 607 (-5)
14:44:28 am 26.12.2017 koru 0:7 normal - 612 (-6)
14:41:57 am 26.12.2017 lilli 801 0:8 normal - 618 (-7)
14:38:19 am 26.12.2017 mc88 2:8 normal - 625 (-7)
14:32:26 am 26.12.2017 fritz 2:7 normal - 632 (-4)
14:27:14 am 26.12.2017 Nino K 5:8 normal - 636 (-5)
14:18:54 am 26.12.2017 Hadel63 6:7 normal - 641 (-4)
15:33:58 am 09.11.2017 Gaby 0:7 normal - 645 (-8)
15:30:55 am 09.11.2017 Speedy 1:7 normal - 653 (-7)
13:12:54 am 18.08.2017 JW 2:8 normal - 660 (-5)
19:28:45 am 09.08.2017 Günter 2:7 normal - 665 (-6)
19:24:35 am 09.08.2017 Andreas1985 3:7 normal - 671 (-7)
19:19:14 am 09.08.2017 ana hod imma des....... 6:7 normal - 678 (-5)
19:14:45 am 09.08.2017 obstler 3:8 normal - 683 (-5)
19:09:54 am 09.08.2017 Hr. Werner 2:7 normal - 688 (-4)
21:01:21 am 08.08.2017 haide88 1:7 normal - 692 (-8)
20:55:34 am 08.08.2017 Spindi 3:7 normal - 700 (-4)
20:48:14 am 08.08.2017 anzapft is 8:4 normal - 704 (15)
20:42:50 am 08.08.2017 Biene 7:4 normal - 689 (13)
20:36:20 am 08.08.2017 Berserker 1:7 normal - 676 (-5)
20:33:46 am 08.08.2017 HTC Desire 626G dual... 2:8 normal - 681 (-5)
21:34:37 am 06.08.2017 daisy007 0:7 normal - 686 (-8)
12:27:21 am 06.08.2017 iPhone 5:7 normal - 694 (-5)